TimePDT,TemperatureF,Dew PointF,Humidity,Sea Level PressureIn,VisibilityMPH,Wind Direction,Wind SpeedMPH,Gust SpeedMPH,PrecipitationIn,Events,Conditions,WindDirDegrees,DateUTC
12:53 AM,45.0,43.0,93,30.08,10.0,Calm,Calm,-,N/A,,Overcast,0,2013-10-11 07:53:00
1:53 AM,46.0,45.0,96,30.11,10.0,West,3.5,-,N/A,,Overcast,260,2013-10-11 08:53:00
2:53 AM,46.9,46.0,97,30.11,10.0,SE,3.5,-,N/A,,Overcast,140,2013-10-11 09:53:00
3:41 AM,46.9,45.0,93,30.10,10.0,Calm,Calm,-,N/A,,Overcast,0,2013-10-11 10:41:00
3:53 AM,46.9,45.0,93,30.11,10.0,Calm,Calm,-,N/A,,Overcast,0,2013-10-11 10:53:00
4:53 AM,48.0,46.9,96,30.12,10.0,Calm,Calm,-,N/A,,Overcast,0,2013-10-11 11:53:00
5:53 AM,48.0,46.9,96,30.12,10.0,Calm,Calm,-,N/A,,Overcast,0,2013-10-11 12:53:00
6:41 AM,44.1,42.1,93,30.12,1.8,Calm,Calm,-,N/A,,Mostly Cloudy,0,2013-10-11 13:41:00
6:50 AM,42.8,41.0,93,30.12,2.5,Calm,Calm,-,N/A,,Scattered Clouds,0,2013-10-11 13:50:00
6:53 AM,43.0,42.1,97,30.13,5.0,Calm,Calm,-,N/A,,Scattered Clouds,0,2013-10-11 13:53:00
6:56 AM,42.1,41.0,96,30.12,1.8,Calm,Calm,-,N/A,,Scattered Clouds,0,2013-10-11 13:56:00
6:59 AM,42.1,39.9,92,30.12,0.8,Calm,Calm,-,N/A,,Mist,0,2013-10-11 13:59:00
7:24 AM,42.1,41.0,96,30.12,3.0,Calm,Calm,-,N/A,,Mostly Cloudy,0,2013-10-11 14:24:00
7:34 AM,41.0,39.9,96,30.12,3.0,Calm,Calm,-,N/A,,Scattered Clouds,0,2013-10-11 14:34:00
7:37 AM,42.1,39.9,92,30.13,1.0,Calm,Calm,-,N/A,,Mist,0,2013-10-11 14:37:00
7:44 AM,42.1,39.9,92,30.13,0.5,Calm,Calm,-,N/A,Fog,Fog,0,2013-10-11 14:44:00
7:53 AM,41.0,39.9,96,30.14,1.0,Calm,Calm,-,N/A,,Mist,0,2013-10-11 14:53:00
7:56 AM,41.0,39.9,96,30.13,2.0,Calm,Calm,-,N/A,,Scattered Clouds,0,2013-10-11 14:56:00
8:03 AM,42.1,41.0,96,30.13,10.0,Calm,Calm,-,N/A,,Mostly Cloudy,0,2013-10-11 15:03:00
8:30 AM,45.0,43.0,93,30.13,2.5,Calm,Calm,-,N/A,,Overcast,0,2013-10-11 15:30:00
8:34 AM,45.0,44.1,97,30.13,0.8,Calm,Calm,-,N/A,,Mist,0,2013-10-11 15:34:00
8:42 AM,45.0,44.1,97,30.13,0.2,South,3.5,-,N/A,Fog,Fog,170,2013-10-11 15:42:00
8:53 AM,46.0,46.0,100,30.14,0.5,Calm,Calm,-,N/A,Fog,Fog,0,2013-10-11 15:53:00
8:56 AM,46.9,46.0,97,30.13,2.0,Calm,Calm,-,N/A,,Mostly Cloudy,0,2013-10-11 15:56:00
8:59 AM,46.9,46.0,97,30.13,8.0,Calm,Calm,-,N/A,,Mostly Cloudy,0,2013-10-11 15:59:00
9:53 AM,52.0,45.0,77,30.14,10.0,ESE,6.9,-,N/A,,Clear,110,2013-10-11 16:53:00
10:53 AM,51.1,44.1,77,30.15,10.0,East,8.1,-,N/A,,Clear,100,2013-10-11 17:53:00
11:53 AM,51.1,46.0,83,30.15,10.0,ENE,3.5,-,N/A,,Partly Cloudy,70,2013-10-11 18:53:00
12:20 PM,51.1,46.0,83,30.15,10.0,Variable,3.5,-,N/A,,Mostly Cloudy,0,2013-10-11 19:20:00
12:53 PM,52.0,46.0,80,30.15,10.0,ENE,4.6,-,N/A,,Mostly Cloudy,60,2013-10-11 19:53:00
1:18 PM,51.1,46.0,83,30.14,10.0,NE,4.6,-,N/A,,Overcast,50,2013-10-11 20:18:00
1:45 PM,51.1,46.0,83,30.14,10.0,ENE,3.5,-,N/A,,Overcast,60,2013-10-11 20:45:00
1:53 PM,51.1,46.0,83,30.14,10.0,Variable,3.5,-,N/A,,Mostly Cloudy,0,2013-10-11 20:53:00
2:10 PM,51.1,46.0,83,30.14,10.0,NE,4.6,-,N/A,,Overcast,50,2013-10-11 21:10:00
2:53 PM,51.1,46.0,83,30.14,10.0,Calm,Calm,-,N/A,,Overcast,0,2013-10-11 21:53:00
3:05 PM,52.0,46.9,83,30.13,10.0,Calm,Calm,-,N/A,,Overcast,0,2013-10-11 22:05:00
3:53 PM,53.1,46.0,77,30.13,10.0,East,3.5,-,N/A,,Overcast,80,2013-10-11 22:53:00
4:17 PM,52.0,45.0,77,30.12,10.0,East,3.5,-,N/A,,Overcast,80,2013-10-11 23:17:00
4:31 PM,52.0,46.0,80,30.12,10.0,East,3.5,-,N/A,,Overcast,90,2013-10-11 23:31:00
4:53 PM,51.1,45.0,80,30.12,10.0,East,3.5,-,N/A,,Overcast,80,2013-10-11 23:53:00
5:45 PM,51.1,44.1,77,30.11,10.0,ESE,4.6,-,N/A,,Overcast,110,2013-10-12 00:45:00
5:53 PM,51.1,45.0,80,30.11,10.0,ESE,3.5,-,N/A,,Overcast,120,2013-10-12 00:53:00
6:09 PM,51.1,45.0,80,30.10,10.0,ESE,3.5,-,N/A,,Overcast,110,2013-10-12 01:09:00
6:53 PM,50.0,46.0,86,30.11,10.0,Calm,Calm,-,N/A,,Overcast,0,2013-10-12 01:53:00
7:53 PM,50.0,46.0,86,30.10,10.0,Calm,Calm,-,N/A,,Overcast,0,2013-10-12 02:53:00
8:53 PM,48.9,46.0,90,30.09,10.0,Calm,Calm,-,N/A,,Overcast,0,2013-10-12 03:53:00
9:53 PM,48.9,46.9,93,30.09,10.0,Calm,Calm,-,N/A,,Overcast,0,2013-10-12 04:53:00
10:53 PM,48.9,46.0,90,30.09,10.0,Calm,Calm,-,N/A,,Overcast,0,2013-10-12 05:53:00
11:53 PM,48.0,46.0,93,30.08,10.0,Calm,Calm,-,0.00,,Overcast,0,2013-10-12 06:53:00